Home > Weather > Radebeul > Past weeks

Flag for Germany Weather for the Past 2 Weeks in Radebeul, Saxony, Germany

Now
32 °F

Clear.


Feels Like: 26 °F
Forecast: 31 / 42 °F
Wind: 6 mph from Southeast

Location: Dresden-Klotzsche

Current Time: Feb 12, 2016 at 11:43:06 PM

Latest Report: Feb 12, 2016 at 10:50 PM


Visibility: 10 mi

Pressure: 29.47 "Hg

Humidity: 87%

Dew point: 28 °F

Location of RadebeulLocation

Historic Weather in Radebeul — Graph

°F

Radebeul Temperature Yesterday

Maximum temperature yesterday: 41 °F (at 11:20 AM)
Minimum temperature yesterday: 36 °F (at 2:20 PM)
Average temperature yesterday: 38 °F

High & Low Weather Summary for the Past Weeks

 TemperatureHumidityPressure
High55 °F (Feb 2, 12:50 PM)100% (Feb 1, 3:20 AM)30.30 "Hg (Feb 1, 3:20 AM)
Low32 °F (Jan 29, 2:50 AM)46% (Jan 29, 11:50 AM)29.09 "Hg (Feb 9, 10:20 PM)
Average42 °F75%29.81 "Hg
* Reported Jan 28 9:20 PM — Feb 12 9:50 PM, Radebeul, Weather by CustomWeather, © 2016

Note: Actual official high and low records may vary slightly from our data, if they occured in-between our weather recording intervals... More about our weather records

Advertising

Radebeul Weather History for the Previous 24 Hours

 ConditionsComfort  
Time TempWeatherWind HumidityBarometerVisibility
9:50 PM
Fri, Feb 12
32 °FClear.8 mph93%29.50 "Hg10 mi
9:20 PM32 °FClear.6 mph87%29.50 "Hg10 mi
8:50 PM32 °FClear.6 mph93%29.50 "Hg10 mi
8:20 PM34 °FClear.7 mph87%29.50 "Hg10 mi
7:50 PM34 °FClear.5 mph87%29.50 "Hg10 mi
7:20 PM36 °FClear.9 mph81%29.50 "Hg10 mi
6:50 PM36 °FClear.7 mph81%29.53 "Hg10 mi
6:20 PM36 °FClear.5 mph81%29.53 "Hg10 mi
5:50 PM36 °FClear.5 mph81%29.53 "Hg10 mi
5:20 PM37 °FClear.3 mph75%29.53 "Hg10 mi
4:50 PM39 °FScattered clouds.2 mph70%29.53 "HgN/A
4:20 PM39 °FScattered clouds.5 mph70%29.56 "HgN/A
3:50 PM39 °FScattered clouds.6 mph70%29.56 "HgN/A
3:20 PM41 °FScattered clouds.7 mph70%29.56 "HgN/A
2:50 PM41 °FScattered clouds.6 mph66%29.56 "HgN/A
2:20 PM41 °FScattered clouds.5 mph61%29.56 "HgN/A
1:50 PM41 °FPartly sunny.3 mph66%29.59 "HgN/A
1:20 PM41 °FPartly sunny.3 mph66%29.59 "HgN/A
12:50 PM41 °FPartly sunny.7 mph66%29.59 "HgN/A
12:20 PM41 °FScattered clouds.6 mph66%29.62 "HgN/A
11:50 AM41 °FScattered clouds.7 mph70%29.62 "HgN/A
11:20 AM39 °FScattered clouds.8 mph75%29.62 "HgN/A
10:50 AM39 °FScattered clouds.7 mph75%29.65 "HgN/A
10:20 AM39 °FSunny.8 mph75%29.65 "Hg10 mi
9:50 AM37 °FSunny.8 mph81%29.65 "Hg10 mi
9:20 AM36 °FSunny.7 mph81%29.65 "Hg10 mi
8:50 AM34 °FScattered showers. Partly sunny.8 mph87%29.65 "HgN/A
8:20 AM34 °FSunny.7 mph87%29.65 "Hg10 mi
7:50 AM34 °FSunny.6 mph81%29.65 "Hg10 mi
7:20 AM32 °FClear.7 mph87%29.65 "Hg10 mi
6:20 AM34 °FClear.8 mph81%29.65 "Hg10 mi
5:50 AM34 °FClear.9 mph87%29.65 "Hg10 mi
5:20 AM34 °FClear.8 mph87%29.65 "Hg10 mi
4:50 AM36 °FClear.7 mph81%29.65 "Hg10 mi
4:20 AM36 °FPassing clouds.7 mph81%29.65 "HgN/A
3:50 AM36 °FPartly cloudy.7 mph81%29.65 "HgN/A
3:20 AM36 °FClear.8 mph81%29.65 "Hg10 mi
2:50 AM34 °FClear.8 mph87%29.65 "Hg10 mi
2:20 AM34 °FClear.8 mph87%29.65 "Hg10 mi
1:50 AM36 °FPassing clouds.8 mph81%29.65 "HgN/A
1:20 AM36 °FClear.8 mph81%29.65 "Hg10 mi
12:20 AM36 °FClear.7 mph81%29.65 "Hg10 mi
11:50 PM
Thu, Feb 11
36 °FPassing clouds.7 mph81%29.65 "HgN/A
Weather by CustomWeather, © 2016

See weather overviewHow to use our weather pages